UTA1225 UNOO-USSS

Flight info

Callsign UTA1225
Flight time 1h 16m
Altitude 360
Route MATIL A231 PEMAG L158 BAKUD N170 NEKER
Aircraft B738/M-SDE2FGIRWZ/S

Departure

Time 2026-04-25 15:29
Airport Omsk Central Airport (UNOO)

Arrival

Time 2026-04-25 16:45
Airport Koltsovo Airport (USSS)
Time Latitude Longitude Altitude Speed Heading
2026-04-25 15:08 54.96335 73.31988 306 ft 0 kts 137°
2026-04-25 15:22 54.96322 73.32010 308 ft 6 kts 137°
2026-04-25 15:23 54.96297 73.32102 307 ft 10 kts 77°
2026-04-25 15:23 54.96347 73.32189 308 ft 10 kts 37°
2026-04-25 15:23 54.96407 73.32238 305 ft 10 kts
2026-04-25 15:23 54.96464 73.32281 306 ft 9 kts 53°
2026-04-25 15:24 54.96485 73.32392 304 ft 10 kts 76°
2026-04-25 15:24 54.96502 73.32524 304 ft 12 kts 77°
2026-04-25 15:24 54.96521 73.32667 304 ft 13 kts 76°
2026-04-25 15:24 54.96534 73.32766 304 ft 13 kts 77°
2026-04-25 15:25 54.96561 73.32969 304 ft 13 kts 73°
2026-04-25 15:25 54.96613 73.33047 304 ft 9 kts
2026-04-25 15:25 54.96674 73.33027 302 ft 9 kts 348°
2026-04-25 15:25 54.96733 73.33004 303 ft 9 kts 346°
2026-04-25 15:26 54.96790 73.32980 303 ft 8 kts 347°
2026-04-25 15:26 54.96846 73.32957 303 ft 8 kts 347°
2026-04-25 15:26 54.96900 73.32935 301 ft 8 kts 347°
2026-04-25 15:26 54.96952 73.32889 302 ft 9 kts 302°
2026-04-25 15:27 54.96949 73.32788 305 ft 6 kts 258°
2026-04-25 15:27 54.96949 73.32787 305 ft 0 kts 258°
2026-04-25 15:28 54.96948 73.32786 304 ft 2 kts 258°
2026-04-25 15:28 54.96914 73.32526 304 ft 60 kts 257°
2026-04-25 15:28 54.96751 73.31319 306 ft 142 kts 257°
2026-04-25 15:28 54.96472 73.29314 605 ft 182 kts 256°
2026-04-25 15:29 54.96224 73.27357 2106 ft 146 kts 251°
2026-04-25 15:29 54.96001 73.25701 3397 ft 140 kts 248°
2026-04-25 15:29 54.95750 73.23898 3855 ft 173 kts 248°
2026-04-25 15:29 54.95438 73.21679 4200 ft 205 kts 249°
2026-04-25 15:30 54.95103 73.19196 4968 ft 208 kts 250°
2026-04-25 15:30 54.94786 73.16760 5903 ft 215 kts 251°
2026-04-25 15:30 54.94419 73.13978 6077 ft 254 kts 251°
2026-04-25 15:30 54.94021 73.10969 6984 ft 253 kts 251°
2026-04-25 15:31 54.93703 73.07949 7847 ft 260 kts 263°
2026-04-25 15:31 54.94072 73.04786 8675 ft 275 kts 284°
2026-04-25 15:31 54.94866 73.01712 9513 ft 282 kts 290°
2026-04-25 15:31 54.95773 72.98655 10210 ft 289 kts 291°
2026-04-25 15:32 54.96736 72.95434 10419 ft 311 kts 291°
2026-04-25 15:32 54.97762 72.91962 10588 ft 332 kts 291°
2026-04-25 15:32 54.98834 72.88300 10944 ft 345 kts 291°
2026-04-25 15:33 55.01023 72.80768 12274 ft 350 kts 291°
2026-04-25 15:33 55.02120 72.76957 12950 ft 352 kts 291°
2026-04-25 15:33 55.03218 72.73129 13627 ft 355 kts 292°
2026-04-25 15:33 55.04323 72.69263 14231 ft 357 kts 291°
2026-04-25 15:34 55.05435 72.65365 14816 ft 361 kts 291°
2026-04-25 15:34 55.06534 72.61421 15459 ft 363 kts 289°
2026-04-25 15:34 55.07473 72.57333 16163 ft 362 kts 285°
2026-04-25 15:34 55.08028 72.54587 16615 ft 363 kts 284°
2026-04-25 15:35 55.09912 72.44707 18104 ft 371 kts 283°
2026-04-25 15:35 55.10737 72.40416 18643 ft 374 kts 283°
2026-04-25 15:35 55.11579 72.36087 19186 ft 378 kts 284°
2026-04-25 15:36 55.13301 72.27334 20237 ft 384 kts 284°
2026-04-25 15:36 55.14177 72.22900 20752 ft 387 kts 284°
2026-04-25 15:36 55.15049 72.18489 21239 ft 391 kts 284°
2026-04-25 15:37 55.15938 72.13981 21792 ft 393 kts 284°
2026-04-25 15:37 55.16828 72.09464 22403 ft 394 kts 283°
2026-04-25 15:37 55.17723 72.04912 22903 ft 397 kts 283°
2026-04-25 15:37 55.18623 72.00314 23340 ft 401 kts 283°
2026-04-25 15:38 55.19528 71.95677 23727 ft 404 kts 283°
2026-04-25 15:38 55.20436 71.91022 24161 ft 405 kts 283°
2026-04-25 15:38 55.21345 71.86350 24582 ft 407 kts 283°
2026-04-25 15:38 55.22257 71.81652 24978 ft 409 kts 283°
2026-04-25 15:39 55.23172 71.76922 25357 ft 411 kts 283°
2026-04-25 15:39 55.24089 71.72168 25737 ft 413 kts 283°
2026-04-25 15:39 55.25010 71.67383 26113 ft 415 kts 283°
2026-04-25 15:39 55.25934 71.62573 26482 ft 417 kts 283°
2026-04-25 15:40 55.26858 71.57750 26828 ft 419 kts 282°
2026-04-25 15:40 55.27160 71.56172 26949 ft 419 kts 282°
2026-04-25 15:40 55.28717 71.48007 27552 ft 423 kts 282°
2026-04-25 15:40 55.29637 71.43173 27926 ft 423 kts 282°
2026-04-25 15:41 55.30570 71.38257 28286 ft 425 kts 282°
2026-04-25 15:41 55.31502 71.33328 28583 ft 427 kts 282°
2026-04-25 15:41 55.32437 71.28371 28881 ft 429 kts 282°
2026-04-25 15:41 55.33388 71.23320 29194 ft 431 kts 282°
2026-04-25 15:42 55.34315 71.18384 29509 ft 432 kts 281°
2026-04-25 15:42 55.35250 71.13373 29926 ft 430 kts 281°
2026-04-25 15:42 55.36001 71.08335 30345 ft 422 kts 275°
2026-04-25 15:42 55.36540 71.03310 30849 ft 416 kts 272°
2026-04-25 15:43 55.37020 70.98341 31459 ft 408 kts 272°
2026-04-25 15:43 55.37504 70.93453 31933 ft 405 kts 272°
2026-04-25 15:43 55.38040 70.88586 32212 ft 407 kts 274°
2026-04-25 15:43 55.38623 70.83708 32459 ft 408 kts 274°
2026-04-25 15:44 55.39218 70.78841 32940 ft 404 kts 274°
2026-04-25 15:44 55.39801 70.74046 33529 ft 397 kts 273°
2026-04-25 15:44 55.40364 70.69305 33885 ft 395 kts 273°
2026-04-25 15:44 55.40911 70.64563 34033 ft 397 kts 273°
2026-04-25 15:45 55.41452 70.59778 34170 ft 399 kts 273°
2026-04-25 15:45 55.41988 70.54988 34384 ft 399 kts 273°
2026-04-25 15:45 55.42522 70.50204 34629 ft 398 kts 273°
2026-04-25 15:45 55.42696 70.48647 34689 ft 399 kts 273°
2026-04-25 15:46 55.43587 70.40597 34952 ft 401 kts 273°
2026-04-25 15:46 55.44120 70.35759 35095 ft 403 kts 274°
2026-04-25 15:46 55.44653 70.30911 35284 ft 403 kts 274°
2026-04-25 15:46 55.45179 70.26124 35495 ft 403 kts 274°
2026-04-25 15:47 55.45709 70.21271 35680 ft 403 kts 274°
2026-04-25 15:47 55.46238 70.16408 35794 ft 406 kts 273°
2026-04-25 15:47 55.47301 70.06571 35773 ft 409 kts 273°
2026-04-25 15:48 55.48359 69.96743 35787 ft 406 kts 273°
2026-04-25 15:48 55.49400 69.86972 35781 ft 404 kts 272°
2026-04-25 15:49 55.50426 69.77251 35778 ft 402 kts 272°
2026-04-25 15:49 55.51439 69.67562 35777 ft 401 kts 272°
2026-04-25 15:50 55.52445 69.57871 35780 ft 402 kts 272°
2026-04-25 15:50 55.53446 69.48135 35786 ft 404 kts 272°
2026-04-25 15:51 55.54109 69.41660 35782 ft 406 kts 272°
2026-04-25 15:51 55.55447 69.28496 35776 ft 408 kts 272°
2026-04-25 15:52 55.56379 69.18670 35765 ft 406 kts 268°
2026-04-25 15:52 55.56233 69.08878 35778 ft 396 kts 257°
2026-04-25 15:53 55.55808 68.99130 35761 ft 401 kts 262°
2026-04-25 15:53 55.55829 68.89227 35794 ft 405 kts 263°
2026-04-25 15:54 55.55823 68.79278 35776 ft 405 kts 262°
2026-04-25 15:54 55.55716 68.69310 35771 ft 406 kts 261°
2026-04-25 15:55 55.55565 68.59342 35767 ft 406 kts 261°
2026-04-25 15:55 55.55400 68.49362 35768 ft 406 kts 261°
2026-04-25 15:56 55.55232 68.39455 35773 ft 406 kts 261°
2026-04-25 15:56 55.55055 68.29498 35786 ft 406 kts 261°
2026-04-25 15:57 55.54870 68.19528 35767 ft 406 kts 261°
2026-04-25 15:57 55.54680 68.09574 35767 ft 405 kts 261°
2026-04-25 15:58 55.54483 67.99626 35773 ft 405 kts 261°
2026-04-25 15:58 55.54327 67.89682 35772 ft 405 kts 261°
2026-04-25 15:59 55.54179 67.79731 35763 ft 405 kts 261°
2026-04-25 15:59 55.54020 67.69802 35778 ft 405 kts 261°
2026-04-25 16:00 55.53908 67.63223 35774 ft 405 kts 261°
2026-04-25 16:00 55.53669 67.49997 35772 ft 405 kts 261°
2026-04-25 16:01 55.53480 67.40052 35771 ft 405 kts 261°
2026-04-25 16:01 55.53283 67.30106 35811 ft 405 kts 261°
2026-04-25 16:02 55.53112 67.21819 35780 ft 407 kts 261°
2026-04-25 16:02 55.52899 67.11834 35799 ft 408 kts 261°
2026-04-25 16:03 55.52677 67.01805 35779 ft 409 kts 261°
2026-04-25 16:03 55.52447 66.91745 35772 ft 411 kts 261°
2026-04-25 16:04 55.52208 66.81666 35772 ft 411 kts 261°
2026-04-25 16:04 55.51961 66.71570 35773 ft 412 kts 261°
2026-04-25 16:05 55.51704 66.61454 35769 ft 413 kts 261°
2026-04-25 16:06 55.51305 66.46272 35772 ft 413 kts 261°
2026-04-25 16:06 55.51028 66.36166 35771 ft 412 kts 260°
2026-04-25 16:07 55.50704 66.26082 35767 ft 411 kts 259°
2026-04-25 16:07 55.50349 66.16022 35765 ft 410 kts 259°
2026-04-25 16:08 55.49990 66.05976 35766 ft 410 kts 259°
2026-04-25 16:08 55.49630 65.96018 35803 ft 409 kts 259°
2026-04-25 16:09 55.49261 65.85988 35779 ft 410 kts 259°
2026-04-25 16:09 55.48883 65.75951 35771 ft 410 kts 259°
2026-04-25 16:10 55.48498 65.65916 35788 ft 411 kts 259°
2026-04-25 16:10 55.48103 65.55857 35766 ft 411 kts 259°
2026-04-25 16:11 55.47702 65.45793 35766 ft 411 kts 259°
2026-04-25 16:11 55.47436 65.35694 35791 ft 415 kts 263°
2026-04-25 16:12 55.47508 65.25483 35763 ft 417 kts 264°
2026-04-25 16:12 55.47593 65.15349 35756 ft 416 kts 263°
2026-04-25 16:13 55.47622 65.05147 35746 ft 416 kts 263°
2026-04-25 16:13 55.47628 64.94954 35747 ft 416 kts 263°
2026-04-25 16:14 55.47626 64.84769 35748 ft 415 kts 263°
2026-04-25 16:14 55.47911 64.74558 35763 ft 425 kts 274°
2026-04-25 16:14 55.48766 64.69479 35757 ft 436 kts 283°
2026-04-25 16:15 55.49966 64.64547 35740 ft 441 kts 288°
2026-04-25 16:15 55.52932 64.54973 35788 ft 446 kts 291°
2026-04-25 16:16 55.55995 64.45431 35746 ft 446 kts 291°
2026-04-25 16:16 55.58991 64.35831 35727 ft 446 kts 290°
2026-04-25 16:17 55.61968 64.26220 35733 ft 446 kts 290°
2026-04-25 16:17 55.64948 64.16583 35721 ft 446 kts 290°
2026-04-25 16:18 55.67920 64.06944 35720 ft 446 kts 290°
2026-04-25 16:18 55.70862 63.97362 35728 ft 446 kts 290°
2026-04-25 16:19 55.73822 63.87683 35720 ft 446 kts 290°
2026-04-25 16:19 55.76778 63.77947 35284 ft 452 kts 289°
2026-04-25 16:20 55.79182 63.67784 34045 ft 443 kts 280°
2026-04-25 16:20 55.80163 63.62590 33434 ft 440 kts 279°
2026-04-25 16:20 55.82090 63.52372 32408 ft 432 kts 278°
2026-04-25 16:21 55.83072 63.47360 31945 ft 427 kts 278°
2026-04-25 16:21 55.84059 63.42409 31493 ft 423 kts 278°
2026-04-25 16:21 55.85042 63.37513 31099 ft 418 kts 277°
2026-04-25 16:21 55.86017 63.32661 30637 ft 414 kts 277°
2026-04-25 16:22 55.86979 63.27852 30205 ft 410 kts 276°
2026-04-25 16:22 55.87928 63.23092 29762 ft 405 kts 275°
2026-04-25 16:22 55.88850 63.18453 29280 ft 400 kts 275°
2026-04-25 16:22 55.89785 63.13740 28784 ft 395 kts 275°
2026-04-25 16:23 55.90680 63.09213 28356 ft 390 kts 275°
2026-04-25 16:23 55.91580 63.04679 27910 ft 386 kts 275°
2026-04-25 16:23 55.92476 63.00175 27440 ft 382 kts 275°
2026-04-25 16:23 55.93361 62.95724 26984 ft 378 kts 275°
2026-04-25 16:24 55.94233 62.91333 26576 ft 373 kts 275°
2026-04-25 16:24 55.95092 62.86989 26152 ft 369 kts 275°
2026-04-25 16:24 55.95939 62.82689 25748 ft 365 kts 275°
2026-04-25 16:24 55.96774 62.78441 25349 ft 361 kts 275°
2026-04-25 16:25 55.97598 62.74232 24950 ft 357 kts 275°
2026-04-25 16:25 55.98139 62.71468 24713 ft 355 kts 276°
2026-04-25 16:25 55.99218 62.65934 24196 ft 351 kts 276°
2026-04-25 16:25 56.00004 62.61892 23807 ft 348 kts 276°
2026-04-25 16:26 56.00794 62.57823 23416 ft 345 kts 276°
2026-04-25 16:26 56.01576 62.53786 22992 ft 342 kts 276°
2026-04-25 16:26 56.02351 62.49780 22562 ft 339 kts 276°
2026-04-25 16:26 56.03116 62.45821 22194 ft 335 kts 276°
2026-04-25 16:27 56.03870 62.41910 21814 ft 331 kts 276°
2026-04-25 16:27 56.04615 62.38034 21427 ft 328 kts 276°
2026-04-25 16:27 56.05351 62.34198 21071 ft 324 kts 276°
2026-04-25 16:27 56.06079 62.30389 20692 ft 323 kts 276°
2026-04-25 16:28 56.06805 62.26581 20318 ft 323 kts 277°
2026-04-25 16:28 56.07529 62.22769 19995 ft 326 kts 277°
2026-04-25 16:28 56.08269 62.18852 19617 ft 338 kts 278°
2026-04-25 16:28 56.09030 62.14837 19210 ft 342 kts 279°
2026-04-25 16:29 56.09797 62.10815 18795 ft 340 kts 279°
2026-04-25 16:29 56.10575 62.06828 18407 ft 339 kts 281°
2026-04-25 16:29 56.11484 62.02924 18039 ft 340 kts 285°
2026-04-25 16:29 56.12508 61.99111 17632 ft 340 kts 288°
2026-04-25 16:30 56.13615 61.95375 17224 ft 338 kts 290°
2026-04-25 16:30 56.14752 61.91700 16834 ft 335 kts 291°
2026-04-25 16:30 56.15868 61.88052 16475 ft 331 kts 290°
2026-04-25 16:30 56.16950 61.84429 16096 ft 328 kts 290°
2026-04-25 16:31 56.18004 61.80813 15720 ft 325 kts 290°
2026-04-25 16:31 56.19022 61.77264 15372 ft 323 kts 290°
2026-04-25 16:31 56.20039 61.73683 15004 ft 321 kts 290°
2026-04-25 16:31 56.21043 61.70120 14636 ft 319 kts 291°
2026-04-25 16:32 56.22037 61.66580 14290 ft 317 kts 291°
2026-04-25 16:32 56.23025 61.63054 13940 ft 315 kts 291°
2026-04-25 16:32 56.24007 61.59541 13588 ft 314 kts 292°
2026-04-25 16:32 56.24984 61.56043 13198 ft 312 kts 292°
2026-04-25 16:33 56.25954 61.52566 12830 ft 310 kts 292°
2026-04-25 16:33 56.26916 61.49114 12476 ft 307 kts 292°
2026-04-25 16:33 56.27868 61.45687 12137 ft 305 kts 292°
2026-04-25 16:33 56.28813 61.42289 11770 ft 303 kts 292°
2026-04-25 16:34 56.29748 61.38917 11508 ft 296 kts 292°
2026-04-25 16:34 56.30645 61.35690 11372 ft 280 kts 292°
2026-04-25 16:34 56.31493 61.32630 11260 ft 269 kts 292°
2026-04-25 16:34 56.32318 61.29637 11169 ft 265 kts 291°
2026-04-25 16:35 56.33136 61.26666 10995 ft 266 kts 291°
2026-04-25 16:35 56.33965 61.23643 10675 ft 272 kts 291°
2026-04-25 16:35 56.34808 61.20575 10377 ft 274 kts 292°
2026-04-25 16:35 56.36032 61.17887 9912 ft 290 kts 323°
2026-04-25 16:36 56.37942 61.16553 9516 ft 297 kts 343°
2026-04-25 16:36 56.38598 61.16303 9353 ft 298 kts 345°
2026-04-25 16:36 56.42016 61.15411 8521 ft 294 kts 349°
2026-04-25 16:36 56.44024 61.14924 8110 ft 289 kts 348°
2026-04-25 16:37 56.45969 61.14423 7711 ft 283 kts 347°
2026-04-25 16:37 56.47904 61.13900 7317 ft 279 kts 347°
2026-04-25 16:37 56.49810 61.13370 6932 ft 276 kts 347°
2026-04-25 16:37 56.51695 61.12843 6577 ft 271 kts 347°
2026-04-25 16:38 56.53541 61.12352 6243 ft 267 kts 350°
2026-04-25 16:38 56.55394 61.12173 5872 ft 265 kts 356°
2026-04-25 16:38 56.57231 61.12246 5499 ft 262 kts 359°
2026-04-25 16:38 56.59038 61.12365 5166 ft 258 kts 358°
2026-04-25 16:39 56.60821 61.12437 4820 ft 254 kts 357°
2026-04-25 16:39 56.62586 61.12474 4509 ft 253 kts 356°
2026-04-25 16:39 56.64331 61.12494 4215 ft 249 kts 355°
2026-04-25 16:39 56.66047 61.12359 3890 ft 243 kts 351°
2026-04-25 16:40 56.67703 61.12053 3645 ft 236 kts 349°
2026-04-25 16:40 56.69312 61.11738 3407 ft 229 kts 349°
2026-04-25 16:40 56.70877 61.11440 3169 ft 222 kts 348°
2026-04-25 16:40 56.72241 61.10539 3012 ft 197 kts 310°
2026-04-25 16:41 56.72775 61.08586 3015 ft 165 kts 274°
2026-04-25 16:41 56.72834 61.07885 3014 ft 166 kts 273°
2026-04-25 16:41 56.73277 61.02378 2926 ft 166 kts 270°
2026-04-25 16:42 56.73362 61.00306 2755 ft 163 kts 269°
2026-04-25 16:42 56.73451 60.98291 2556 ft 152 kts 270°
2026-04-25 16:42 56.73526 60.96410 2317 ft 143 kts 268°
2026-04-25 16:42 56.73585 60.94605 2124 ft 142 kts 269°
2026-04-25 16:43 56.73660 60.92800 1998 ft 144 kts 269°
2026-04-25 16:43 56.73728 60.90964 1816 ft 148 kts 268°
2026-04-25 16:43 56.73791 60.89064 1552 ft 153 kts 270°
2026-04-25 16:43 56.73874 60.87112 1260 ft 154 kts 271°
2026-04-25 16:44 56.73946 60.85212 1042 ft 149 kts 271°
2026-04-25 16:44 56.74011 60.83350 868 ft 147 kts 273°
2026-04-25 16:44 56.74086 60.81537 775 ft 134 kts 272°
2026-04-25 16:44 56.74147 60.80069 772 ft 94 kts 274°
2026-04-25 16:45 56.74178 60.79276 776 ft 25 kts 273°
2026-04-25 16:45 56.74221 60.79108 774 ft 5 kts 334°
2026-04-25 16:45 56.74258 60.79105 774 ft 5 kts
2026-04-25 16:45 56.74295 60.79115 775 ft 5 kts
2026-04-25 16:46 56.74335 60.79127 775 ft 8 kts
2026-04-25 16:46 56.74424 60.79157 772 ft 18 kts 15°
2026-04-25 16:46 56.74573 60.79193 774 ft 22 kts 359°
2026-04-25 16:46 56.74625 60.79189 774 ft 22 kts 358°
2026-04-25 16:47 56.74835 60.79197 775 ft 11 kts 22°
2026-04-25 16:47 56.74858 60.79318 775 ft 11 kts 90°
2026-04-25 16:47 56.74857 60.79450 775 ft 10 kts 91°
2026-04-25 16:47 56.74857 60.79577 775 ft 10 kts 90°
2026-04-25 16:48 56.74864 60.79695 774 ft 9 kts 61°
2026-04-25 16:48 56.74913 60.79724 774 ft 5 kts 357°
2026-04-25 16:48 56.74923 60.79724 774 ft 0 kts 358°